Location: Unspecified
(0.0000°N, 0.0000°E)
Time: 18:18:23
(UTC+00:00)

FENGYUN 1C DEB - Visible Passes

Search period start: 04 April 2026 00:00
Search period end: 14 April 2026 00:00
Orbit: 676 x 1174 km, 98.3° (Epoch: 28 March)

Date Brightness Start Highest point End Pass type
(mag) Time Alt. Az. Time Alt. Az. Time Alt. Az.
4 Apr ? 18:29:24 10° NNE 18:35:04 41° E 18:40:06 10° S visible
4 Apr ? 20:13:37 10° NW 20:16:50 15° WNW 20:19:53 10° WSW visible
5 Apr ? 18:39:00 10° NNE 18:44:52 53° E 18:50:03 10° S visible
5 Apr ? 20:25:16 10° WNW 20:26:31 11° WNW 20:27:45 10° W visible
6 Apr ? 18:48:40 10° NNE 18:54:39 69° ESE 18:59:53 10° S visible
7 Apr ? 18:58:25 10° NNE 19:04:24 88° E 19:09:38 10° SSW visible
8 Apr ? 19:08:15 10° N 19:14:07 71° WNW 19:19:18 10° SSW visible
9 Apr ? 19:18:09 10° N 19:23:49 54° WNW 19:28:51 10° SSW visible
10 Apr ? 19:28:09 10° N 19:33:30 41° WNW 19:38:18 10° SW visible
11 Apr ? 19:38:14 10° NNW 19:43:09 31° WNW 19:47:38 10° SW visible
12 Apr ? 19:48:27 10° NNW 19:52:48 23° WNW 19:56:48 10° SW visible
13 Apr ? 18:15:56 10° NE 18:20:29 27° E 18:24:39 10° SSE visible
13 Apr ? 19:58:52 10° NW 20:02:25 18° WNW 20:05:45 10° WSW visible
